sat.trackr.live / text

‹ back to catalog

STARLINK-36981

NORAD 68148 · 2026-049G

PAYLOAD ACTIVE UNKNOWN

§ Identity

Operator
Country
US
Launch date
2026-03-13
Launch site
AFWTR
Launch vehicle
Mass (kg)
RCS (m²)

Purposes: comms

External: N2YO · Heavens-Above · Gunter

§ Orbital elements

Epoch: 2026-09-20T01:15:10.281312Z

Period
93.91 min
Inclination
97.2850°
Eccentricity
0.0000268
Mean motion
15.33451836 rev/d
Perigee alt
465.3 km
Apogee alt
465.7 km
Semi-major
6,843.7 km
B*
5.0894e-4
RAAN
283.0329°
Arg perigee
140.6296°
Mean anomaly
219.4967°
Rev number
2,943

§ Raw data

STARLINK-369811 68148U 26049G   26263.05220233  .00016394  00000+0  50894-3 0  99952 68148  97.2850 283.0329 0000268 140.6296 219.4967 15.33451836 29436

JSON: /api/v1/satellites/68148 · /tle

For live sub-satellite position, see the globe view (requires WebGL).

§ Visibility from observer

Set your observer location to see the next 7 days of passes ≥ 10°. The values pass through the URL so the page stays shareable.

No JS? Fill the form by hand. The geolocation button needs JavaScript.